When you browse on this site, cookies collect data to enhance your experience and personalize the content and advertising you see.
Visit our Privacy Policy to learn more. By continuing to use the site, you agree to this use of cookies and data.
  • In United Kingdom
  • List of Countries
  • For 7 days
  • Water Temperature
  • Satellite Maps
  • Weather Map
  • Weather Widgets
  • user-avatar
    Login

    Hourly Weather Minsk

    Today, 25 May, Saturday

    Time Temperature Precipitation Wind Pressure Humidity
    00:00 +15°C° 0 mm 2 mps 737 mmHg 92%
    01:00 +14°C° 0 mm 3 mps 737 mmHg 93%
    02:00 +14°C° 0 mm 2 mps 736 mmHg 94%
    03:00 +14°C° 0 mm 2 mps 736 mmHg 95%
    04:00 +14°C° 0 mm 2 mps 736 mmHg 95%
    05:00 +14°C° 0 mm 2 mps 736 mmHg 95%
    06:00 +14°C° 0 mm 3 mps 736 mmHg 91%
    07:00 +16°C° 0 mm 3 mps 736 mmHg 87%
    08:00 +17°C° 0 mm 3 mps 737 mmHg 82%
    09:00 +18°C° 0 mm 3 mps 737 mmHg 77%
    10:00 +19°C° 0 mm 3 mps 737 mmHg 72%
    11:00 +20°C° 0 mm 4 mps 737 mmHg 67%
    12:00 +21°C° 0.1 mm 4 mps 736 mmHg 64%
    13:00 +21°C° 0.1 mm 5 mps 736 mmHg 61%
    14:00 +22°C° 0.1 mm 5 mps 736 mmHg 58%
    15:00 +21°C° 0 mm 5 mps 736 mmHg 58%
    16:00 +21°C° 0 mm 4 mps 736 mmHg 58%
    17:00 +21°C° 0 mm 4 mps 736 mmHg 58%
    18:00 +19°C° 0 mm 4 mps 736 mmHg 65%
    19:00 +18°C° 0 mm 3 mps 736 mmHg 72%
    20:00 +16°C° 0 mm 3 mps 736 mmHg 80%
    21:00 +14°C° 0 mm 3 mps 736 mmHg 83%
    22:00 +13°C° 0 mm 3 mps 737 mmHg 86%
    23:00 +12°C° 0 mm 3 mps 737 mmHg 89%

    Tomorrow, 26 May, Sunday

    Time Temperature Precipitation Wind Pressure Humidity
    00:00 +12°C° 0 mm 3 mps 737 mmHg 89%
    01:00 +11°C° 0 mm 3 mps 737 mmHg 88%
    02:00 +10°C° 0 mm 3 mps 737 mmHg 87%
    03:00 +9°C° 0 mm 3 mps 737 mmHg 89%
    04:00 +8°C° 0 mm 3 mps 737 mmHg 90%
    05:00 +8°C° 0 mm 2 mps 737 mmHg 92%
    06:00 +9°C° 0 mm 3 mps 738 mmHg 86%
    07:00 +10°C° 0 mm 3 mps 738 mmHg 81%
    08:00 +12°C° 0 mm 3 mps 738 mmHg 76%
    09:00 +13°C° 0 mm 4 mps 738 mmHg 71%
    10:00 +14°C° 0 mm 4 mps 738 mmHg 67%
    11:00 +17°C° 0 mm 4 mps 738 mmHg 63%
    12:00 +16°C° 0 mm 5 mps 738 mmHg 62%
    13:00 +17°C° 0 mm 5 mps 737 mmHg 62%
    14:00 +17°C° 0 mm 6 mps 737 mmHg 61%
    15:00 +17°C° 0 mm 6 mps 737 mmHg 63%
    16:00 +17°C° 0 mm 6 mps 737 mmHg 65%
    17:00 +16°C° 0 mm 6 mps 737 mmHg 67%
    18:00 +15°C° 0 mm 5 mps 737 mmHg 71%
    19:00 +14°C° 0 mm 4 mps 737 mmHg 75%
    20:00 +13°C° 0 mm 4 mps 737 mmHg 79%
    21:00 +12°C° 0 mm 4 mps 737 mmHg 82%
    22:00 +11°C° 0 mm 3 mps 737 mmHg 86%
    23:00 +10°C° 0 mm 3 mps 738 mmHg 89%

    Day after tomorrow, 27 May, Monday

    Time Temperature Precipitation Wind Pressure Humidity
    00:00 +10°C° 0 mm 3 mps 738 mmHg 90%
    01:00 +9°C° 0 mm 3 mps 738 mmHg 91%
    02:00 +9°C° 0 mm 3 mps 738 mmHg 92%
    03:00 +9°C° 0 mm 3 mps 738 mmHg 91%
    04:00 +10°C° 0 mm 4 mps 738 mmHg 91%
    05:00 +10°C° 0 mm 4 mps 738 mmHg 90%
    06:00 +12°C° 0 mm 4 mps 738 mmHg 86%
    07:00 +13°C° 0 mm 5 mps 738 mmHg 82%
    08:00 +14°C° 0 mm 5 mps 738 mmHg 78%
    09:00 +15°C° 0 mm 6 mps 738 mmHg 76%
    10:00 +16°C° 0 mm 6 mps 738 mmHg 75%
    11:00 +19°C° 0 mm 6 mps 738 mmHg 73%
    12:00 +20°C° 0.2 mm 6 mps 738 mmHg 71%
    13:00 +21°C° 0.2 mm 7 mps 738 mmHg 69%
    14:00 +22°C° 0.2 mm 7 mps 738 mmHg 67%
    15:00 +22°C° 0.3 mm 7 mps 738 mmHg 68%
    16:00 +22°C° 0.3 mm 6 mps 737 mmHg 70%
    17:00 +22°C° 0.3 mm 6 mps 737 mmHg 71%
    18:00 +20°C° 0.3 mm 5 mps 737 mmHg 75%
    19:00 +19°C° 0.3 mm 5 mps 737 mmHg 80%
    20:00 +18°C° 0.3 mm 4 mps 738 mmHg 84%
    21:00 +17°C° 0 mm 4 mps 738 mmHg 86%
    22:00 +17°C° 0 mm 3 mps 738 mmHg 89%
    23:00 +16°C° 0 mm 3 mps 738 mmHg 91%

    28 May, Tuesday

    Time Temperature Precipitation Wind Pressure Humidity
    00:00 +14°C° 0 mm 3 mps 738 mmHg 92%
    01:00 +14°C° 0 mm 3 mps 738 mmHg 93%
    02:00 +14°C° 0 mm 3 mps 738 mmHg 94%
    03:00 +15°C° 0 mm 2 mps 738 mmHg 94%
    04:00 +15°C° 0 mm 2 mps 739 mmHg 95%
    05:00 +15°C° 0 mm 2 mps 739 mmHg 95%
    06:00 +16°C° 0.1 mm 2 mps 739 mmHg 91%
    07:00 +18°C° 0.1 mm 2 mps 739 mmHg 86%
    08:00 +20°C° 0.1 mm 2 mps 739 mmHg 82%
    09:00 +21°C° 0.7 mm 3 mps 739 mmHg 78%
    10:00 +22°C° 0.7 mm 4 mps 739 mmHg 75%
    11:00 +23°C° 0.7 mm 4 mps 738 mmHg 71%
    12:00 +23°C° 0.4 mm 5 mps 738 mmHg 71%
    13:00 +25°C° 0.4 mm 5 mps 737 mmHg 70%
    14:00 +24°C° 0.4 mm 6 mps 737 mmHg 69%
    15:00 +25°C° 0.7 mm 5 mps 737 mmHg 71%
    16:00 +25°C° 0.7 mm 5 mps 736 mmHg 73%
    17:00 +25°C° 0.7 mm 5 mps 736 mmHg 75%
    18:00 +22°C° 0.6 mm 5 mps 736 mmHg 79%
    19:00 +21°C° 0.6 mm 4 mps 736 mmHg 83%
    20:00 +20°C° 0.6 mm 4 mps 736 mmHg 87%
    21:00 +20°C° 0.2 mm 4 mps 736 mmHg 88%
    22:00 +19°C° 0.2 mm 4 mps 736 mmHg 90%
    23:00 +18°C° 0.2 mm 4 mps 736 mmHg 92%

    29 May, Wednesday

    Time Temperature Precipitation Wind Pressure Humidity
    00:00 +18°C° 0 mm 4 mps 736 mmHg 92%
    01:00 +18°C° 0 mm 4 mps 736 mmHg 92%
    02:00 +16°C° 0 mm 5 mps 736 mmHg 91%
    03:00 +16°C° 0 mm 5 mps 735 mmHg 92%
    04:00 +16°C° 0 mm 5 mps 735 mmHg 92%
    05:00 +15°C° 0 mm 5 mps 735 mmHg 92%
    06:00 +16°C° 0 mm 5 mps 735 mmHg 88%
    07:00 +17°C° 0 mm 5 mps 735 mmHg 84%
    08:00 +19°C° 0 mm 6 mps 735 mmHg 80%
    09:00 +20°C° 0.1 mm 6 mps 736 mmHg 76%
    10:00 +21°C° 0.1 mm 6 mps 736 mmHg 73%
    11:00 +23°C° 0.1 mm 6 mps 736 mmHg 70%
    12:00 +24°C° 0 mm 6 mps 736 mmHg 68%
    13:00 +26°C° 0 mm 6 mps 735 mmHg 66%
    14:00 +27°C° 0 mm 6 mps 735 mmHg 64%
    15:00 +24°C° 1.5 mm 6 mps 735 mmHg 69%
    16:00 +23°C° 1.5 mm 5 mps 735 mmHg 74%
    17:00 +22°C° 1.5 mm 4 mps 735 mmHg 79%
    18:00 +21°C° 0.3 mm 4 mps 736 mmHg 83%
    19:00 +20°C° 0.3 mm 3 mps 736 mmHg 86%
    20:00 +19°C° 0.3 mm 3 mps 736 mmHg 89%
    21:00 +18°C° 0.1 mm 2 mps 736 mmHg 90%
    22:00 +18°C° 0.1 mm 2 mps 737 mmHg 91%
    23:00 +17°C° 0.1 mm 2 mps 737 mmHg 92%

    30 May, Thursday

    Time Temperature Precipitation Wind Pressure Humidity
    00:00 +16°C° 0 mm 2 mps 738 mmHg 94%
    01:00 +16°C° 0 mm 3 mps 738 mmHg 95%
    02:00 +14°C° 0 mm 3 mps 739 mmHg 96%
    03:00 +14°C° 0 mm 4 mps 739 mmHg 95%
    04:00 +13°C° 0 mm 4 mps 740 mmHg 94%
    05:00 +13°C° 0 mm 4 mps 741 mmHg 93%
    06:00 +12°C° 0 mm 4 mps 741 mmHg 92%
    07:00 +12°C° 0 mm 4 mps 742 mmHg 91%
    08:00 +12°C° 0 mm 4 mps 742 mmHg 90%
    09:00 +13°C° 0 mm 4 mps 743 mmHg 86%
    10:00 +14°C° 0 mm 4 mps 743 mmHg 83%
    11:00 +15°C° 0 mm 4 mps 744 mmHg 79%
    12:00 +17°C° 0 mm 4 mps 744 mmHg 77%
    13:00 +17°C° 0 mm 4 mps 744 mmHg 76%
    14:00 +17°C° 0 mm 4 mps 744 mmHg 74%
    15:00 +18°C° 0 mm 4 mps 744 mmHg 74%
    16:00 +18°C° 0 mm 3 mps 744 mmHg 74%
    17:00 +18°C° 0 mm 3 mps 744 mmHg 74%
    18:00 +17°C° 0 mm 3 mps 745 mmHg 76%
    19:00 +16°C° 0 mm 2 mps 745 mmHg 78%
    20:00 +16°C° 0 mm 2 mps 745 mmHg 80%
    21:00 +16°C° 0 mm 2 mps 745 mmHg 77%
    22:00 +15°C° 0 mm 2 mps 745 mmHg 74%
    23:00 +15°C° 0 mm 2 mps 745 mmHg 71%
    Show more